Location: Bothwell
(42.3833°S, 147.0000°E)
Time: 18:01:03
(UTC+11:00)

Tiangong - Visible Passes

Search period start: 01 December 2022 00:00
Search period end: 11 December 2022 00:00
Orbit: 385 x 393 km, 41.5° (Epoch: 30 November)

Date Brightness Start Highest point End Pass type
(mag) Time Alt. Az. Time Alt. Az. Time Alt. Az.
06 Dec -0.6 04:42:53 10° NW 04:45:41 26° NNE 04:48:29 10° E visible
07 Dec -0.2 03:47:01 17° NNE 03:47:27 17° NNE 03:49:43 10° ENE visible
08 Dec -1.4 04:23:23 16° NW 04:25:38 40° NNE 04:28:44 10° E visible
09 Dec -0.8 03:27:25 28° NNE 03:27:25 28° NNE 03:30:07 10° E visible
10 Dec -1.9 04:03:39 23° WNW 04:05:28 57° NNE 04:08:40 10° E visible
